sat.trackr.live / text

‹ back to catalog

STARLINK-6125

NORAD 57114 · 2023-090P

PAYLOAD ACTIVE UNKNOWN

§ Identity

Operator
Country
US
Launch date
2023-06-23
Launch site
AFETR
Launch vehicle
Mass (kg)
RCS (m²)

Purposes: comms

External: N2YO · Heavens-Above · Gunter

§ Orbital elements

Epoch: 2026-09-20T11:18:06.872832Z

Period
94.27 min
Inclination
43.0018°
Eccentricity
0.0001306
Mean motion
15.27580138 rev/d
Perigee alt
482.2 km
Apogee alt
483.9 km
Semi-major
6,861.2 km
B*
3.1502e-5
RAAN
261.3642°
Arg perigee
264.7748°
Mean anomaly
95.2955°
Rev number
18,012

§ Raw data

STARLINK-61251 57114U 23090P   26263.47091288  .00000605  00000+0  31502-4 0  99952 57114  43.0018 261.3642 0001306 264.7748  95.2955 15.27580138180125

JSON: /api/v1/satellites/57114 · /tle

For live sub-satellite position, see the globe view (requires WebGL).

§ Visibility from observer

Set your observer location to see the next 7 days of passes ≥ 10°. The values pass through the URL so the page stays shareable.

No JS? Fill the form by hand. The geolocation button needs JavaScript.